Location: *
(51.0333°S, 178.4667°E)
Time: 03:02:54
(UTC+00:00)

CZ-4 R/B - Pass Details

Date: 29 February 2020
Orbit: 531 x 599 km, 97.8° (Epoch: 04 April)

Event Time Altitude Azimuth Distance (km) Brightness Sun altitude
Rises 09:13:24 0° 182° (S) 2,845 5.6 -19.0°
Reaches altitude 10° 09:16:39 10° 209° (SSW) 1,950 5.2 -19.4°
Maximum altitude 09:18:33 13° 236° (SW) 1,768 5.0 -19.6°
Drops below altitude 10° 09:20:27 10° 263° (W) 1,954 4.9 -19.9°
Sets 09:23:43 0° 290° (WNW) 2,856 5.3 -20.2°
